<?xml version="1.0" encoding="UTF-8" standalone="no" ?>
<gpx xmlns="http://www.topografix.com/GPX/1/1" xmlns:xsi="http://www.w3.org/2001/XMLSchema-instance" xsi:schemaLocation="http://www.topografix.com/GPX/1/1 http://www.topografix.com/GPX/1/1/gpx.xsd" version="1.1" creator="VisuGPX - https://www.visugpx.com">
  <metadata>
    <name>10470013-J1 Chevauchées 2022 Véron et caves</name>
  </metadata>
  <wpt lat="47.1888" lon="0.17277">
    <ele>40.3</ele>
    <name><![CDATA[]]></name>
    <desc><![CDATA[]]></desc>
  </wpt>
  <wpt lat="47.18881" lon="0.17321">
    <ele>43.2</ele>
    <name><![CDATA[]]></name>
    <desc><![CDATA[]]></desc>
  </wpt>
  <trk>
    <name><![CDATA[10470013-J1 Chevauchées 2022 Véron et caves]]></name>
    <trkseg>
      <trkpt lat="47.22484" lon="0.12627">
        <ele>32</ele>
        <time>2022-01-14T15:30:23Z</time>
      </trkpt>
      <trkpt lat="47.22376" lon="0.12749">
        <ele>33</ele>
        <time>2022-01-14T15:32:12Z</time>
      </trkpt>
      <trkpt lat="47.22273" lon="0.12586">
        <ele>30</ele>
        <time>2022-01-14T15:34:13Z</time>
      </trkpt>
      <trkpt lat="47.22191" lon="0.12684">
        <ele>32</ele>
        <time>2022-01-14T15:35:38Z</time>
      </trkpt>
      <trkpt lat="47.22128" lon="0.12583">
        <ele>32</ele>
        <time>2022-01-14T15:36:52Z</time>
      </trkpt>
      <trkpt lat="47.22058" lon="0.12511">
        <ele>33</ele>
        <time>2022-01-14T15:38:01Z</time>
      </trkpt>
      <trkpt lat="47.21997" lon="0.12457">
        <ele>32</ele>
        <time>2022-01-14T15:38:58Z</time>
      </trkpt>
      <trkpt lat="47.21922" lon="0.12413">
        <ele>32</ele>
        <time>2022-01-14T15:40:02Z</time>
      </trkpt>
      <trkpt lat="47.2189" lon="0.12272">
        <ele>31</ele>
        <time>2022-01-14T15:41:23Z</time>
      </trkpt>
      <trkpt lat="47.2188" lon="0.12255">
        <ele>31</ele>
        <time>2022-01-14T15:41:35Z</time>
      </trkpt>
      <trkpt lat="47.21859" lon="0.12162">
        <ele>32</ele>
        <time>2022-01-14T15:42:29Z</time>
      </trkpt>
      <trkpt lat="47.21834" lon="0.12117">
        <ele>32</ele>
        <time>2022-01-14T15:43:00Z</time>
      </trkpt>
      <trkpt lat="47.21836" lon="0.1208">
        <ele>32</ele>
        <time>2022-01-14T15:43:20Z</time>
      </trkpt>
      <trkpt lat="47.21822" lon="0.12032">
        <ele>31</ele>
        <time>2022-01-14T15:43:49Z</time>
      </trkpt>
      <trkpt lat="47.21729" lon="0.1191">
        <ele>30</ele>
        <time>2022-01-14T15:45:29Z</time>
      </trkpt>
      <trkpt lat="47.21635" lon="0.11839">
        <ele>30</ele>
        <time>2022-01-14T15:46:53Z</time>
      </trkpt>
      <trkpt lat="47.21667" lon="0.11831">
        <ele>30</ele>
        <time>2022-01-14T15:47:19Z</time>
      </trkpt>
      <trkpt lat="47.21693" lon="0.11797">
        <ele>30</ele>
        <time>2022-01-14T15:47:47Z</time>
      </trkpt>
      <trkpt lat="47.21748" lon="0.11696">
        <ele>30</ele>
        <time>2022-01-14T15:48:57Z</time>
      </trkpt>
      <trkpt lat="47.21869" lon="0.11546">
        <ele>31</ele>
        <time>2022-01-14T15:51:04Z</time>
      </trkpt>
      <trkpt lat="47.22075" lon="0.11346">
        <ele>33</ele>
        <time>2022-01-14T15:54:22Z</time>
      </trkpt>
      <trkpt lat="47.21964" lon="0.11126">
        <ele>34</ele>
        <time>2022-01-14T15:56:51Z</time>
      </trkpt>
      <trkpt lat="47.21925" lon="0.11061">
        <ele>32</ele>
        <time>2022-01-14T15:57:38Z</time>
      </trkpt>
      <trkpt lat="47.21888" lon="0.1103">
        <ele>33</ele>
        <time>2022-01-14T15:58:12Z</time>
      </trkpt>
      <trkpt lat="47.21825" lon="0.10938">
        <ele>33</ele>
        <time>2022-01-14T15:59:23Z</time>
      </trkpt>
      <trkpt lat="47.21789" lon="0.10903">
        <ele>33</ele>
        <time>2022-01-14T15:59:57Z</time>
      </trkpt>
      <trkpt lat="47.21808" lon="0.10854">
        <ele>30</ele>
        <time>2022-01-14T16:00:28Z</time>
      </trkpt>
      <trkpt lat="47.21766" lon="0.10769">
        <ele>31</ele>
        <time>2022-01-14T16:01:25Z</time>
      </trkpt>
      <trkpt lat="47.21728" lon="0.10741">
        <ele>31</ele>
        <time>2022-01-14T16:01:59Z</time>
      </trkpt>
      <trkpt lat="47.2169" lon="0.10733">
        <ele>31</ele>
        <time>2022-01-14T16:02:30Z</time>
      </trkpt>
      <trkpt lat="47.21608" lon="0.10854">
        <ele>32</ele>
        <time>2022-01-14T16:04:03Z</time>
      </trkpt>
      <trkpt lat="47.21566" lon="0.10916">
        <ele>33</ele>
        <time>2022-01-14T16:04:51Z</time>
      </trkpt>
      <trkpt lat="47.21536" lon="0.10971">
        <ele>33</ele>
        <time>2022-01-14T16:05:29Z</time>
      </trkpt>
      <trkpt lat="47.21506" lon="0.10998">
        <ele>31</ele>
        <time>2022-01-14T16:05:57Z</time>
      </trkpt>
      <trkpt lat="47.2151" lon="0.10953">
        <ele>31</ele>
        <time>2022-01-14T16:06:22Z</time>
      </trkpt>
      <trkpt lat="47.215" lon="0.10877">
        <ele>32</ele>
        <time>2022-01-14T16:07:04Z</time>
      </trkpt>
      <trkpt lat="47.21494" lon="0.10733">
        <ele>36</ele>
        <time>2022-01-14T16:08:22Z</time>
      </trkpt>
      <trkpt lat="47.21416" lon="0.09859">
        <ele>36</ele>
        <time>2022-01-14T16:16:22Z</time>
      </trkpt>
      <trkpt lat="47.21097" lon="0.09783">
        <ele>30</ele>
        <time>2022-01-14T16:20:41Z</time>
      </trkpt>
      <trkpt lat="47.21045" lon="0.09777">
        <ele>30</ele>
        <time>2022-01-14T16:21:22Z</time>
      </trkpt>
      <trkpt lat="47.21015" lon="0.09831">
        <ele>30</ele>
        <time>2022-01-14T16:22:00Z</time>
      </trkpt>
      <trkpt lat="47.20987" lon="0.09936">
        <ele>27</ele>
        <time>2022-01-14T16:23:02Z</time>
      </trkpt>
      <trkpt lat="47.20964" lon="0.09939">
        <ele>27</ele>
        <time>2022-01-14T16:23:20Z</time>
      </trkpt>
      <trkpt lat="47.20839" lon="0.10205">
        <ele>30</ele>
        <time>2022-01-14T16:26:16Z</time>
      </trkpt>
      <trkpt lat="47.20742" lon="0.10311">
        <ele>31</ele>
        <time>2022-01-14T16:27:53Z</time>
      </trkpt>
      <trkpt lat="47.20697" lon="0.10372">
        <ele>30</ele>
        <time>2022-01-14T16:28:42Z</time>
      </trkpt>
      <trkpt lat="47.20501" lon="0.10718">
        <ele>32</ele>
        <time>2022-01-14T16:32:47Z</time>
      </trkpt>
      <trkpt lat="47.20739" lon="0.11124">
        <ele>29</ele>
        <time>2022-01-14T16:37:38Z</time>
      </trkpt>
      <trkpt lat="47.20842" lon="0.1131">
        <ele>30</ele>
        <time>2022-01-14T16:39:49Z</time>
      </trkpt>
      <trkpt lat="47.20509" lon="0.11941">
        <ele>32</ele>
        <time>2022-01-14T16:47:04Z</time>
      </trkpt>
      <trkpt lat="47.20332" lon="0.12256">
        <ele>28</ele>
        <time>2022-01-14T16:50:46Z</time>
      </trkpt>
      <trkpt lat="47.20136" lon="0.11977">
        <ele>37</ele>
        <time>2022-01-14T16:54:24Z</time>
      </trkpt>
      <trkpt lat="47.2001" lon="0.11841">
        <ele>37</ele>
        <time>2022-01-14T16:56:29Z</time>
      </trkpt>
      <trkpt lat="47.19806" lon="0.11656">
        <ele>31</ele>
        <time>2022-01-14T16:59:41Z</time>
      </trkpt>
      <trkpt lat="47.19787" lon="0.11652">
        <ele>31</ele>
        <time>2022-01-14T16:59:57Z</time>
      </trkpt>
      <trkpt lat="47.19687" lon="0.11747">
        <ele>30</ele>
        <time>2022-01-14T17:01:32Z</time>
      </trkpt>
      <trkpt lat="47.196" lon="0.11803">
        <ele>33</ele>
        <time>2022-01-14T17:02:48Z</time>
      </trkpt>
      <trkpt lat="47.19414" lon="0.11992">
        <ele>33</ele>
        <time>2022-01-14T17:05:49Z</time>
      </trkpt>
      <trkpt lat="47.19378" lon="0.1204">
        <ele>33</ele>
        <time>2022-01-14T17:06:28Z</time>
      </trkpt>
      <trkpt lat="47.19348" lon="0.12121">
        <ele>33</ele>
        <time>2022-01-14T17:07:18Z</time>
      </trkpt>
      <trkpt lat="47.19151" lon="0.12625">
        <ele>34</ele>
        <time>2022-01-14T17:12:34Z</time>
      </trkpt>
      <trkpt lat="47.1908" lon="0.12836">
        <ele>31</ele>
        <time>2022-01-14T17:14:42Z</time>
      </trkpt>
      <trkpt lat="47.19009" lon="0.1278">
        <ele>33</ele>
        <time>2022-01-14T17:15:47Z</time>
      </trkpt>
      <trkpt lat="47.18921" lon="0.12728">
        <ele>32</ele>
        <time>2022-01-14T17:17:03Z</time>
      </trkpt>
      <trkpt lat="47.18855" lon="0.12713">
        <ele>33</ele>
        <time>2022-01-14T17:17:56Z</time>
      </trkpt>
      <trkpt lat="47.1882" lon="0.12694">
        <ele>33</ele>
        <time>2022-01-14T17:18:26Z</time>
      </trkpt>
      <trkpt lat="47.18732" lon="0.12627">
        <ele>34</ele>
        <time>2022-01-14T17:19:46Z</time>
      </trkpt>
      <trkpt lat="47.1867" lon="0.12605">
        <ele>36</ele>
        <time>2022-01-14T17:20:37Z</time>
      </trkpt>
      <trkpt lat="47.18613" lon="0.12579">
        <ele>34</ele>
        <time>2022-01-14T17:21:24Z</time>
      </trkpt>
      <trkpt lat="47.1859" lon="0.12569">
        <ele>33</ele>
        <time>2022-01-14T17:21:44Z</time>
      </trkpt>
      <trkpt lat="47.18557" lon="0.12529">
        <ele>34</ele>
        <time>2022-01-14T17:22:18Z</time>
      </trkpt>
      <trkpt lat="47.18519" lon="0.12526">
        <ele>34</ele>
        <time>2022-01-14T17:22:48Z</time>
      </trkpt>
      <trkpt lat="47.18485" lon="0.12613">
        <ele>34</ele>
        <time>2022-01-14T17:23:43Z</time>
      </trkpt>
      <trkpt lat="47.18469" lon="0.12696">
        <ele>36</ele>
        <time>2022-01-14T17:24:30Z</time>
      </trkpt>
      <trkpt lat="47.18441" lon="0.128">
        <ele>36</ele>
        <time>2022-01-14T17:25:31Z</time>
      </trkpt>
      <trkpt lat="47.18437" lon="0.12888">
        <ele>36</ele>
        <time>2022-01-14T17:26:19Z</time>
      </trkpt>
      <trkpt lat="47.18417" lon="0.12961">
        <ele>35</ele>
        <time>2022-01-14T17:27:02Z</time>
      </trkpt>
      <trkpt lat="47.18404" lon="0.13023">
        <ele>35</ele>
        <time>2022-01-14T17:27:37Z</time>
      </trkpt>
      <trkpt lat="47.18351" lon="0.13454">
        <ele>31</ele>
        <time>2022-01-14T17:31:35Z</time>
      </trkpt>
      <trkpt lat="47.18346" lon="0.13537">
        <ele>32</ele>
        <time>2022-01-14T17:32:21Z</time>
      </trkpt>
      <trkpt lat="47.18292" lon="0.13904">
        <ele>32</ele>
        <time>2022-01-14T17:35:45Z</time>
      </trkpt>
      <trkpt lat="47.18762" lon="0.14095">
        <ele>33</ele>
        <time>2022-01-14T17:42:15Z</time>
      </trkpt>
      <trkpt lat="47.18628" lon="0.14939">
        <ele>32</ele>
        <time>2022-01-14T17:50:07Z</time>
      </trkpt>
      <trkpt lat="47.18446" lon="0.15484">
        <ele>35</ele>
        <time>2022-01-14T17:55:37Z</time>
      </trkpt>
      <trkpt lat="47.18409" lon="0.15655">
        <ele>35</ele>
        <time>2022-01-14T17:57:15Z</time>
      </trkpt>
      <trkpt lat="47.18394" lon="0.15704">
        <ele>36</ele>
        <time>2022-01-14T17:57:44Z</time>
      </trkpt>
      <trkpt lat="47.18289" lon="0.16172">
        <ele>31</ele>
        <time>2022-01-14T18:02:13Z</time>
      </trkpt>
      <trkpt lat="47.18187" lon="0.16575">
        <ele>34</ele>
        <time>2022-01-14T18:06:07Z</time>
      </trkpt>
      <trkpt lat="47.18143" lon="0.1674">
        <ele>34</ele>
        <time>2022-01-14T18:07:43Z</time>
      </trkpt>
      <trkpt lat="47.18174" lon="0.16799">
        <ele>35</ele>
        <time>2022-01-14T18:08:24Z</time>
      </trkpt>
      <trkpt lat="47.18443" lon="0.16974">
        <ele>32</ele>
        <time>2022-01-14T18:12:19Z</time>
      </trkpt>
      <trkpt lat="47.18574" lon="0.16908">
        <ele>33</ele>
        <time>2022-01-14T18:14:10Z</time>
      </trkpt>
      <trkpt lat="47.18594" lon="0.16884">
        <ele>33</ele>
        <time>2022-01-14T18:14:31Z</time>
      </trkpt>
      <trkpt lat="47.18727" lon="0.16983">
        <ele>35</ele>
        <time>2022-01-14T18:16:30Z</time>
      </trkpt>
      <trkpt lat="47.18858" lon="0.1711">
        <ele>38</ele>
        <time>2022-01-14T18:18:36Z</time>
      </trkpt>
      <trkpt lat="47.18843" lon="0.1719">
        <ele>40</ele>
        <time>2022-01-14T18:19:21Z</time>
      </trkpt>
      <trkpt lat="47.18856" lon="0.17237">
        <ele>40</ele>
        <time>2022-01-14T18:19:48Z</time>
      </trkpt>
      <trkpt lat="47.1887" lon="0.17254">
        <ele>40</ele>
        <time>2022-01-14T18:20:03Z</time>
      </trkpt>
      <trkpt lat="47.18888" lon="0.17266">
        <ele>40</ele>
        <time>2022-01-14T18:20:19Z</time>
      </trkpt>
      <trkpt lat="47.1886" lon="0.17245">
        <ele>40</ele>
        <time>2022-01-14T18:20:44Z</time>
      </trkpt>
      <trkpt lat="47.1884" lon="0.17282">
        <ele>41</ele>
        <time>2022-01-14T18:21:10Z</time>
      </trkpt>
      <trkpt lat="47.18816" lon="0.17269">
        <ele>42</ele>
        <time>2022-01-14T18:21:30Z</time>
      </trkpt>
      <trkpt lat="47.18803" lon="0.17281">
        <ele>42</ele>
        <time>2022-01-14T18:21:42Z</time>
      </trkpt>
      <trkpt lat="47.18784" lon="0.17291">
        <ele>42</ele>
        <time>2022-01-14T18:21:58Z</time>
      </trkpt>
      <trkpt lat="47.1875" lon="0.17325">
        <ele>42</ele>
        <time>2022-01-14T18:22:31Z</time>
      </trkpt>
      <trkpt lat="47.18705" lon="0.17416">
        <ele>40</ele>
        <time>2022-01-14T18:23:33Z</time>
      </trkpt>
      <trkpt lat="47.1878" lon="0.17477">
        <ele>45</ele>
        <time>2022-01-14T18:24:41Z</time>
      </trkpt>
      <trkpt lat="47.18839" lon="0.17506">
        <ele>47</ele>
        <time>2022-01-14T18:25:31Z</time>
      </trkpt>
      <trkpt lat="47.18886" lon="0.17544">
        <ele>48</ele>
        <time>2022-01-14T18:26:14Z</time>
      </trkpt>
      <trkpt lat="47.1893" lon="0.17585">
        <ele>48</ele>
        <time>2022-01-14T18:26:56Z</time>
      </trkpt>
      <trkpt lat="47.18947" lon="0.17592">
        <ele>48</ele>
        <time>2022-01-14T18:27:10Z</time>
      </trkpt>
      <trkpt lat="47.18944" lon="0.17626">
        <ele>50</ele>
        <time>2022-01-14T18:27:28Z</time>
      </trkpt>
      <trkpt lat="47.18871" lon="0.17842">
        <ele>54</ele>
        <time>2022-01-14T18:29:40Z</time>
      </trkpt>
      <trkpt lat="47.18852" lon="0.17911">
        <ele>53</ele>
        <time>2022-01-14T18:30:20Z</time>
      </trkpt>
      <trkpt lat="47.18818" lon="0.17971">
        <ele>52</ele>
        <time>2022-01-14T18:31:03Z</time>
      </trkpt>
      <trkpt lat="47.18934" lon="0.18034">
        <ele>49</ele>
        <time>2022-01-14T18:32:42Z</time>
      </trkpt>
      <trkpt lat="47.19015" lon="0.18068">
        <ele>47</ele>
        <time>2022-01-14T18:33:49Z</time>
      </trkpt>
      <trkpt lat="47.1904" lon="0.18068">
        <ele>47</ele>
        <time>2022-01-14T18:34:09Z</time>
      </trkpt>
      <trkpt lat="47.19054" lon="0.17991">
        <ele>48</ele>
        <time>2022-01-14T18:34:53Z</time>
      </trkpt>
      <trkpt lat="47.19063" lon="0.17884">
        <ele>50</ele>
        <time>2022-01-14T18:35:51Z</time>
      </trkpt>
      <trkpt lat="47.19096" lon="0.17811">
        <ele>49</ele>
        <time>2022-01-14T18:36:39Z</time>
      </trkpt>
      <trkpt lat="47.1913" lon="0.17788">
        <ele>46</ele>
        <time>2022-01-14T18:37:09Z</time>
      </trkpt>
      <trkpt lat="47.19181" lon="0.17684">
        <ele>40</ele>
        <time>2022-01-14T18:38:19Z</time>
      </trkpt>
      <trkpt lat="47.19216" lon="0.17722">
        <ele>40</ele>
        <time>2022-01-14T18:38:54Z</time>
      </trkpt>
      <trkpt lat="47.19249" lon="0.17738">
        <ele>41</ele>
        <time>2022-01-14T18:39:21Z</time>
      </trkpt>
      <trkpt lat="47.19332" lon="0.17539">
        <ele>34</ele>
        <time>2022-01-14T18:41:28Z</time>
      </trkpt>
      <trkpt lat="47.194" lon="0.17405">
        <ele>32</ele>
        <time>2022-01-14T18:42:59Z</time>
      </trkpt>
      <trkpt lat="47.19422" lon="0.17342">
        <ele>31</ele>
        <time>2022-01-14T18:43:38Z</time>
      </trkpt>
      <trkpt lat="47.19438" lon="0.17322">
        <ele>32</ele>
        <time>2022-01-14T18:43:55Z</time>
      </trkpt>
      <trkpt lat="47.19493" lon="0.17267">
        <ele>36</ele>
        <time>2022-01-14T18:44:48Z</time>
      </trkpt>
      <trkpt lat="47.19488" lon="0.17251">
        <ele>35</ele>
        <time>2022-01-14T18:44:58Z</time>
      </trkpt>
      <trkpt lat="47.19522" lon="0.1717">
        <ele>38</ele>
        <time>2022-01-14T18:45:49Z</time>
      </trkpt>
      <trkpt lat="47.1945" lon="0.17087">
        <ele>36</ele>
        <time>2022-01-14T18:47:03Z</time>
      </trkpt>
      <trkpt lat="47.19537" lon="0.16839">
        <ele>38</ele>
        <time>2022-01-14T18:49:34Z</time>
      </trkpt>
      <trkpt lat="47.19487" lon="0.1678">
        <ele>37</ele>
        <time>2022-01-14T18:50:26Z</time>
      </trkpt>
      <trkpt lat="47.19467" lon="0.16631">
        <ele>36</ele>
        <time>2022-01-14T18:51:48Z</time>
      </trkpt>
      <trkpt lat="47.19398" lon="0.16339">
        <ele>41</ele>
        <time>2022-01-14T18:54:37Z</time>
      </trkpt>
      <trkpt lat="47.19345" lon="0.16197">
        <ele>40</ele>
        <time>2022-01-14T18:56:05Z</time>
      </trkpt>
      <trkpt lat="47.19278" lon="0.16077">
        <ele>35</ele>
        <time>2022-01-14T18:57:29Z</time>
      </trkpt>
      <trkpt lat="47.19347" lon="0.16045">
        <ele>38</ele>
        <time>2022-01-14T18:58:27Z</time>
      </trkpt>
      <trkpt lat="47.19444" lon="0.15921">
        <ele>36</ele>
        <time>2022-01-14T19:00:10Z</time>
      </trkpt>
      <trkpt lat="47.19522" lon="0.15886">
        <ele>31</ele>
        <time>2022-01-14T19:01:15Z</time>
      </trkpt>
      <trkpt lat="47.19636" lon="0.15783">
        <ele>32</ele>
        <time>2022-01-14T19:03:02Z</time>
      </trkpt>
      <trkpt lat="47.19725" lon="0.15609">
        <ele>33</ele>
        <time>2022-01-14T19:05:01Z</time>
      </trkpt>
      <trkpt lat="47.19725" lon="0.15756">
        <ele>33</ele>
        <time>2022-01-14T19:06:21Z</time>
      </trkpt>
      <trkpt lat="47.19716" lon="0.1585">
        <ele>33</ele>
        <time>2022-01-14T19:07:13Z</time>
      </trkpt>
      <trkpt lat="47.19747" lon="0.15857">
        <ele>33</ele>
        <time>2022-01-14T19:07:38Z</time>
      </trkpt>
      <trkpt lat="47.19767" lon="0.15849">
        <ele>33</ele>
        <time>2022-01-14T19:07:54Z</time>
      </trkpt>
      <trkpt lat="47.19793" lon="0.15852">
        <ele>32</ele>
        <time>2022-01-14T19:08:15Z</time>
      </trkpt>
      <trkpt lat="47.19808" lon="0.15842">
        <ele>32</ele>
        <time>2022-01-14T19:08:28Z</time>
      </trkpt>
      <trkpt lat="47.1984" lon="0.15848">
        <ele>32</ele>
        <time>2022-01-14T19:08:54Z</time>
      </trkpt>
      <trkpt lat="47.20017" lon="0.1589">
        <ele>33</ele>
        <time>2022-01-14T19:11:18Z</time>
      </trkpt>
      <trkpt lat="47.20329" lon="0.15953">
        <ele>35</ele>
        <time>2022-01-14T19:15:30Z</time>
      </trkpt>
      <trkpt lat="47.2031" lon="0.16075">
        <ele>36</ele>
        <time>2022-01-14T19:16:38Z</time>
      </trkpt>
      <trkpt lat="47.2032" lon="0.16418">
        <ele>34</ele>
        <time>2022-01-14T19:19:45Z</time>
      </trkpt>
      <trkpt lat="47.20302" lon="0.16654">
        <ele>35</ele>
        <time>2022-01-14T19:21:54Z</time>
      </trkpt>
      <trkpt lat="47.20419" lon="0.16656">
        <ele>34</ele>
        <time>2022-01-14T19:23:28Z</time>
      </trkpt>
      <trkpt lat="47.20464" lon="0.16666">
        <ele>33</ele>
        <time>2022-01-14T19:24:04Z</time>
      </trkpt>
      <trkpt lat="47.20495" lon="0.1668">
        <ele>33</ele>
        <time>2022-01-14T19:24:30Z</time>
      </trkpt>
      <trkpt lat="47.2054" lon="0.16575">
        <ele>32</ele>
        <time>2022-01-14T19:25:37Z</time>
      </trkpt>
      <trkpt lat="47.20548" lon="0.16493">
        <ele>32</ele>
        <time>2022-01-14T19:26:23Z</time>
      </trkpt>
      <trkpt lat="47.20546" lon="0.16375">
        <ele>33</ele>
        <time>2022-01-14T19:27:27Z</time>
      </trkpt>
      <trkpt lat="47.20569" lon="0.16116">
        <ele>36</ele>
        <time>2022-01-14T19:29:49Z</time>
      </trkpt>
      <trkpt lat="47.20561" lon="0.16069">
        <ele>37</ele>
        <time>2022-01-14T19:30:15Z</time>
      </trkpt>
      <trkpt lat="47.2053" lon="0.15966">
        <ele>38</ele>
        <time>2022-01-14T19:31:16Z</time>
      </trkpt>
      <trkpt lat="47.20543" lon="0.15906">
        <ele>38</ele>
        <time>2022-01-14T19:31:51Z</time>
      </trkpt>
      <trkpt lat="47.20579" lon="0.15824">
        <ele>38</ele>
        <time>2022-01-14T19:32:44Z</time>
      </trkpt>
      <trkpt lat="47.20604" lon="0.15569">
        <ele>37</ele>
        <time>2022-01-14T19:35:04Z</time>
      </trkpt>
      <trkpt lat="47.20625" lon="0.15597">
        <ele>37</ele>
        <time>2022-01-14T19:35:27Z</time>
      </trkpt>
      <trkpt lat="47.20657" lon="0.15618">
        <ele>37</ele>
        <time>2022-01-14T19:35:55Z</time>
      </trkpt>
      <trkpt lat="47.2069" lon="0.15625">
        <ele>39</ele>
        <time>2022-01-14T19:36:21Z</time>
      </trkpt>
      <trkpt lat="47.20713" lon="0.15619">
        <ele>40</ele>
        <time>2022-01-14T19:36:40Z</time>
      </trkpt>
      <trkpt lat="47.20722" lon="0.15619">
        <ele>40</ele>
        <time>2022-01-14T19:36:47Z</time>
      </trkpt>
      <trkpt lat="47.20911" lon="0.15639">
        <ele>44</ele>
        <time>2022-01-14T19:39:19Z</time>
      </trkpt>
      <trkpt lat="47.2105" lon="0.1567">
        <ele>42</ele>
        <time>2022-01-14T19:41:12Z</time>
      </trkpt>
      <trkpt lat="47.2109" lon="0.15449">
        <ele>44</ele>
        <time>2022-01-14T19:43:16Z</time>
      </trkpt>
      <trkpt lat="47.21101" lon="0.15424">
        <ele>44</ele>
        <time>2022-01-14T19:43:32Z</time>
      </trkpt>
      <trkpt lat="47.2103" lon="0.15296">
        <ele>46</ele>
        <time>2022-01-14T19:45:02Z</time>
      </trkpt>
      <trkpt lat="47.21062" lon="0.15301">
        <ele>46</ele>
        <time>2022-01-14T19:45:28Z</time>
      </trkpt>
      <trkpt lat="47.21261" lon="0.15354">
        <ele>40</ele>
        <time>2022-01-14T19:48:10Z</time>
      </trkpt>
      <trkpt lat="47.21353" lon="0.15361">
        <ele>38</ele>
        <time>2022-01-14T19:49:24Z</time>
      </trkpt>
      <trkpt lat="47.21349" lon="0.15331">
        <ele>37</ele>
        <time>2022-01-14T19:49:40Z</time>
      </trkpt>
      <trkpt lat="47.21356" lon="0.15247">
        <ele>36</ele>
        <time>2022-01-14T19:50:26Z</time>
      </trkpt>
      <trkpt lat="47.2135" lon="0.15201">
        <ele>36</ele>
        <time>2022-01-14T19:50:52Z</time>
      </trkpt>
      <trkpt lat="47.21368" lon="0.14981">
        <ele>34</ele>
        <time>2022-01-14T19:52:52Z</time>
      </trkpt>
      <trkpt lat="47.21393" lon="0.14954">
        <ele>34</ele>
        <time>2022-01-14T19:53:17Z</time>
      </trkpt>
      <trkpt lat="47.21426" lon="0.14926">
        <ele>34</ele>
        <time>2022-01-14T19:53:48Z</time>
      </trkpt>
      <trkpt lat="47.21447" lon="0.14915">
        <ele>34</ele>
        <time>2022-01-14T19:54:05Z</time>
      </trkpt>
      <trkpt lat="47.21451" lon="0.14888">
        <ele>35</ele>
        <time>2022-01-14T19:54:20Z</time>
      </trkpt>
      <trkpt lat="47.21408" lon="0.14798">
        <ele>35</ele>
        <time>2022-01-14T19:55:20Z</time>
      </trkpt>
      <trkpt lat="47.21388" lon="0.14742">
        <ele>35</ele>
        <time>2022-01-14T19:55:55Z</time>
      </trkpt>
      <trkpt lat="47.21369" lon="0.14673">
        <ele>34</ele>
        <time>2022-01-14T19:56:35Z</time>
      </trkpt>
      <trkpt lat="47.21355" lon="0.14645">
        <ele>34</ele>
        <time>2022-01-14T19:56:54Z</time>
      </trkpt>
      <trkpt lat="47.21364" lon="0.14618">
        <ele>34</ele>
        <time>2022-01-14T19:57:10Z</time>
      </trkpt>
      <trkpt lat="47.21477" lon="0.14633">
        <ele>35</ele>
        <time>2022-01-14T19:58:41Z</time>
      </trkpt>
      <trkpt lat="47.21549" lon="0.14641">
        <ele>34</ele>
        <time>2022-01-14T19:59:39Z</time>
      </trkpt>
      <trkpt lat="47.21694" lon="0.14688">
        <ele>33</ele>
        <time>2022-01-14T20:01:38Z</time>
      </trkpt>
      <trkpt lat="47.21801" lon="0.14702">
        <ele>33</ele>
        <time>2022-01-14T20:03:04Z</time>
      </trkpt>
      <trkpt lat="47.21805" lon="0.14474">
        <ele>33</ele>
        <time>2022-01-14T20:05:08Z</time>
      </trkpt>
      <trkpt lat="47.21812" lon="0.14359">
        <ele>32</ele>
        <time>2022-01-14T20:06:11Z</time>
      </trkpt>
      <trkpt lat="47.21792" lon="0.14232">
        <ele>32</ele>
        <time>2022-01-14T20:07:22Z</time>
      </trkpt>
      <trkpt lat="47.2191" lon="0.14222">
        <ele>33</ele>
        <time>2022-01-14T20:08:56Z</time>
      </trkpt>
      <trkpt lat="47.22074" lon="0.14243">
        <ele>33</ele>
        <time>2022-01-14T20:11:08Z</time>
      </trkpt>
      <trkpt lat="47.22137" lon="0.14263">
        <ele>32</ele>
        <time>2022-01-14T20:12:00Z</time>
      </trkpt>
      <trkpt lat="47.22244" lon="0.14255">
        <ele>33</ele>
        <time>2022-01-14T20:13:26Z</time>
      </trkpt>
      <trkpt lat="47.22359" lon="0.14227">
        <ele>34</ele>
        <time>2022-01-14T20:14:59Z</time>
      </trkpt>
      <trkpt lat="47.22385" lon="0.14453">
        <ele>33</ele>
        <time>2022-01-14T20:17:03Z</time>
      </trkpt>
      <trkpt lat="47.22424" lon="0.14737">
        <ele>34</ele>
        <time>2022-01-14T20:19:41Z</time>
      </trkpt>
      <trkpt lat="47.22439" lon="0.14979">
        <ele>36</ele>
        <time>2022-01-14T20:21:53Z</time>
      </trkpt>
      <trkpt lat="47.2244" lon="0.15127">
        <ele>37</ele>
        <time>2022-01-14T20:23:14Z</time>
      </trkpt>
      <trkpt lat="47.22471" lon="0.15255">
        <ele>33</ele>
        <time>2022-01-14T20:24:28Z</time>
      </trkpt>
      <trkpt lat="47.22469" lon="0.15297">
        <ele>34</ele>
        <time>2022-01-14T20:24:50Z</time>
      </trkpt>
      <trkpt lat="47.22627" lon="0.15287">
        <ele>33</ele>
        <time>2022-01-14T20:26:57Z</time>
      </trkpt>
      <trkpt lat="47.22852" lon="0.15297">
        <ele>33</ele>
        <time>2022-01-14T20:29:57Z</time>
      </trkpt>
      <trkpt lat="47.22904" lon="0.15295">
        <ele>33</ele>
        <time>2022-01-14T20:30:39Z</time>
      </trkpt>
      <trkpt lat="47.229" lon="0.14937">
        <ele>32</ele>
        <time>2022-01-14T20:33:54Z</time>
      </trkpt>
      <trkpt lat="47.22881" lon="0.1459">
        <ele>33</ele>
        <time>2022-01-14T20:37:03Z</time>
      </trkpt>
      <trkpt lat="47.22979" lon="0.14574">
        <ele>33</ele>
        <time>2022-01-14T20:38:22Z</time>
      </trkpt>
      <trkpt lat="47.23156" lon="0.1458">
        <ele>32</ele>
        <time>2022-01-14T20:40:44Z</time>
      </trkpt>
      <trkpt lat="47.2316" lon="0.14611">
        <ele>32</ele>
        <time>2022-01-14T20:41:01Z</time>
      </trkpt>
      <trkpt lat="47.23175" lon="0.14614">
        <ele>32</ele>
        <time>2022-01-14T20:41:13Z</time>
      </trkpt>
      <trkpt lat="47.23243" lon="0.14607">
        <ele>32</ele>
        <time>2022-01-14T20:42:07Z</time>
      </trkpt>
      <trkpt lat="47.2326" lon="0.14586">
        <ele>32</ele>
        <time>2022-01-14T20:42:25Z</time>
      </trkpt>
      <trkpt lat="47.23353" lon="0.14563">
        <ele>35</ele>
        <time>2022-01-14T20:43:41Z</time>
      </trkpt>
      <trkpt lat="47.2335" lon="0.14464">
        <ele>33</ele>
        <time>2022-01-14T20:44:35Z</time>
      </trkpt>
      <trkpt lat="47.23348" lon="0.14343">
        <ele>32</ele>
        <time>2022-01-14T20:45:40Z</time>
      </trkpt>
      <trkpt lat="47.23324" lon="0.14171">
        <ele>34</ele>
        <time>2022-01-14T20:47:16Z</time>
      </trkpt>
      <trkpt lat="47.23214" lon="0.14184">
        <ele>34</ele>
        <time>2022-01-14T20:48:44Z</time>
      </trkpt>
      <trkpt lat="47.23202" lon="0.14167">
        <ele>33</ele>
        <time>2022-01-14T20:48:58Z</time>
      </trkpt>
      <trkpt lat="47.23166" lon="0.14166">
        <ele>33</ele>
        <time>2022-01-14T20:49:26Z</time>
      </trkpt>
      <trkpt lat="47.23204" lon="0.14167">
        <ele>33</ele>
        <time>2022-01-14T20:49:57Z</time>
      </trkpt>
      <trkpt lat="47.23225" lon="0.14185">
        <ele>34</ele>
        <time>2022-01-14T20:50:16Z</time>
      </trkpt>
      <trkpt lat="47.23319" lon="0.1417">
        <ele>34</ele>
        <time>2022-01-14T20:51:32Z</time>
      </trkpt>
      <trkpt lat="47.23324" lon="0.14145">
        <ele>34</ele>
        <time>2022-01-14T20:51:46Z</time>
      </trkpt>
      <trkpt lat="47.23325" lon="0.14091">
        <ele>34</ele>
        <time>2022-01-14T20:52:16Z</time>
      </trkpt>
      <trkpt lat="47.233" lon="0.14018">
        <ele>34</ele>
        <time>2022-01-14T20:53:00Z</time>
      </trkpt>
      <trkpt lat="47.23262" lon="0.13963">
        <ele>32</ele>
        <time>2022-01-14T20:53:43Z</time>
      </trkpt>
      <trkpt lat="47.23261" lon="0.1389">
        <ele>32</ele>
        <time>2022-01-14T20:54:22Z</time>
      </trkpt>
      <trkpt lat="47.23254" lon="0.13855">
        <ele>33</ele>
        <time>2022-01-14T20:54:42Z</time>
      </trkpt>
      <trkpt lat="47.23178" lon="0.13842">
        <ele>35</ele>
        <time>2022-01-14T20:55:43Z</time>
      </trkpt>
      <trkpt lat="47.23111" lon="0.13872">
        <ele>35</ele>
        <time>2022-01-14T20:56:40Z</time>
      </trkpt>
      <trkpt lat="47.23089" lon="0.13847">
        <ele>35</ele>
        <time>2022-01-14T20:57:02Z</time>
      </trkpt>
      <trkpt lat="47.23068" lon="0.13827">
        <ele>34</ele>
        <time>2022-01-14T20:57:22Z</time>
      </trkpt>
      <trkpt lat="47.23026" lon="0.13755">
        <ele>31</ele>
        <time>2022-01-14T20:58:13Z</time>
      </trkpt>
      <trkpt lat="47.22943" lon="0.13728">
        <ele>31</ele>
        <time>2022-01-14T20:59:21Z</time>
      </trkpt>
      <trkpt lat="47.22627" lon="0.13658">
        <ele>34</ele>
        <time>2022-01-14T21:03:37Z</time>
      </trkpt>
      <trkpt lat="47.22553" lon="0.13632">
        <ele>34</ele>
        <time>2022-01-14T21:04:38Z</time>
      </trkpt>
      <trkpt lat="47.22497" lon="0.13636">
        <ele>34</ele>
        <time>2022-01-14T21:05:23Z</time>
      </trkpt>
      <trkpt lat="47.2249" lon="0.1357">
        <ele>33</ele>
        <time>2022-01-14T21:05:59Z</time>
      </trkpt>
      <trkpt lat="47.22474" lon="0.13497">
        <ele>34</ele>
        <time>2022-01-14T21:06:41Z</time>
      </trkpt>
      <trkpt lat="47.22464" lon="0.13428">
        <ele>33</ele>
        <time>2022-01-14T21:07:20Z</time>
      </trkpt>
      <trkpt lat="47.22371" lon="0.13441">
        <ele>33</ele>
        <time>2022-01-14T21:08:34Z</time>
      </trkpt>
      <trkpt lat="47.22338" lon="0.13307">
        <ele>33</ele>
        <time>2022-01-14T21:09:52Z</time>
      </trkpt>
      <trkpt lat="47.2232" lon="0.13245">
        <ele>33</ele>
        <time>2022-01-14T21:10:28Z</time>
      </trkpt>
      <trkpt lat="47.22301" lon="0.13208">
        <ele>33</ele>
        <time>2022-01-14T21:10:54Z</time>
      </trkpt>
      <trkpt lat="47.22372" lon="0.13078">
        <ele>33</ele>
        <time>2022-01-14T21:12:24Z</time>
      </trkpt>
      <trkpt lat="47.22473" lon="0.12988">
        <ele>33</ele>
        <time>2022-01-14T21:13:59Z</time>
      </trkpt>
      <trkpt lat="47.22379" lon="0.12754">
        <ele>34</ele>
        <time>2022-01-14T21:16:27Z</time>
      </trkpt>
      <trkpt lat="47.2247" lon="0.12664">
        <ele>32</ele>
        <time>2022-01-14T21:17:55Z</time>
      </trkpt>
    </trkseg>
  </trk>
</gpx>